Tracking 31027 objects as of 19-Jul-2025
HD Live streaming from Space Station
objects crossing your sky now

ARIANE 1 DEB

Track ARIANE 1 DEB now!


NORAD ID: 48343
Int'l Code: 1981-057G
Perigee: 568.6 km
Apogee: 28,576.8 km
Inclination: 10.6 °
Period: 502.7 minutes
Semi major axis: 20943 km
RCS: Unknown
Launch date: June 19, 1981
Source: European Space Agency (ESA)
Launch site: FRENCH GUIANA (FRGUI)

Note: This is SATELLITE DEBRIS
Your satellite tracking list
FENGYUN 1C DEB
Track 1 satellite(s)




NASA's NSSDC Master Catalog

Two Line Element Set (TLE):
1 48343U 81057G   25199.90302958  .00000765  00000-0  55988-2 0  9990
2 48343  10.6448 138.8277 6686561  44.5549 178.8925  2.86432689263135
Source of the keplerian elements: AFSPC